CAPE
70 85 65 87 984 218 436 407 224 10 16 5 0 3 4 0 16 112 9 101 245 507 962 1134 2175 2235 1858 1785 2084 2166 2263 2200 2198 2199 2284 2294 2072 2102 1996 1835 1257 1773 1619 1505 1046 954 1191 1641 1774
69 48 63 412 418 191 341 290 136 20 5 4 23 38 38 15 0 5 60 217 113 373 921 936 2139 2499 1817 2101 2074 2092 1994 2061 2211 2227 2149 2125 2121 1903 1851 1911 1668 1833 1673 1360 1537 1456 1550 1594 1872
56 175 426 409 277 203 281 243 75 3 1 18 135 17 23 9 1 2 20 274 189 618 1020 1196 2275 2507 1940 1739 2287 2142 2117 2101 2131 2056 2109 2049 1997 1909 1947 1587 1623 1791 1697 1516 1426 1528 1563 1593 1721
221 210 62 477 182 161 208 254 26 36 193 183 82 22 0 1 2 1 167 363 373 710 868 1693 1846 1999 1833 2117 2008 1946 1693 2050 2056 2153 2037 1939 1734 1967 2092 2080 1762 1745 1739 1689 1590 1512 1567 1409 1382
91 279 263 273 174 87 240 150 90 97 199 108 9 1 8 8 1 42 375 459 683 570 850 1529 2257 2259 2118 2088 1853 1957 1961 2073 1939 1817 1938 2053 1986 2028 2128 1893 1702 1541 1505 1758 1618 1345 1371 1521 1714
479 26 6 57 54 85 232 350 231 396 151 5 1 1 9 22 19 247 389 480 785 636 500 1310 1824 1979 1882 1714 1632 1707 1967 2030 2040 2007 1808 1863 1941 2115 2182 2020 1938 1837 1746 1663 1624 1557 1328 1345 1524
230 0 0 13 65 41 201 637 319 382 141 56 0 1 19 29 73 383 465 626 917 609 560 1072 1282 1678 2107 2206 1711 1811 2006 2080 2135 1846 2139 2053 2157 2162 2137 2128 1902 1721 1610 1341 1408 1510 1501 1516 1571
592 4 137 47 54 105 372 429 542 389 101 1 0 0 15 15 240 403 598 822 1029 745 751 1056 1368 1454 1911 2102 1661 1869 1887 2021 2087 2093 2140 2255 2203 2127 2156 1992 1744 1693 1631 1406 1289 1437 1526 1631 1881
126 360 234 165 37 134 251 363 717 99 0 13 0 0 0 48 316 416 706 856 1036 747 542 628 1167 1400 1750 2043 1438 1605 1745 1760 1761 1774 2008 1749 2099 1970 1716 1753 1543 1776 1563 1662 1601 1565 1608 1661 1744
603 311 151 153 35 25 169 339 741 153 25 18 0 0 5 119 280 262 387 602 762 542 549 544 831 1055 1442 1118 1423 1554 1515 1439 1638 1912 1675 1591 1672 1699 1392 1548 1367 1609 1615 1535 1693 1685 1621 1322 1265
258 205 236 186 22 166 453 324 593 306 289 100 37 15 30 161 144 84 203 499 396 202 262 437 1079 1290 1319 1106 1371 1393 1621 1579 1866 1948 1068 1485 1689 1726 1516 1444 2242 1824 1438 1314 1447 1555 1119 1153 1292
142 163 459 436 298 130 177 694 637 490 528 293 53 21 30 97 65 59 167 421 385 187 253 606 1233 1366 1745 1490 1186 1326 1382 1502 1510 1318 646 1328 1380 1251 1373 1307 1573 1828 2099 1802 2073 1922 1935 1694 1504
85 68 73 172 160 40 32 468 729 623 430 116 54 17 43 30 30 43 89 280 357 220 305 758 1259 1241 1727 2041 1313 1125 1270 1187 1190 1143 610 495 1273 1165 1174 1492 1221 1338 1709 1964 2081 1870 1908 1855 1813
0 0 5 0 0 0 0 32 538 638 147 102 32 38 66 57 18 50 104 203 329 245 257 612 1102 1062 1305 1700 1627 1084 1093 1159 1206 1234 110 818 910 1106 678 935 957 1144 1803 1936 1947 1864 1095 1184 1285
0 0 0 0 0 0 1 125 417 424 169 129 68 41 98 105 59 86 121 192 285 455 422 683 926 802 923 1424 1259 908 737 705 1047 1206 1010 497 1115 1411 1159 890 1402 1494 1884 2199 2087 1819 800 863 511
0 0 0 0 0 0 33 93 531 311 222 173 89 34 106 144 88 157 237 234 358 455 720 745 486 417 607 672 843 485 372 473 905 1221 1365 912 508 1543 1498 1448 1609 1646 2559 2116 1605 1948 1293 1080 659
0 0 0 0 0 0 36 48 501 306 292 245 136 59 60 184 224 262 313 355 400 550 745 651 580 265 478 637 539 541 474 597 923 1073 1232 1482 1318 1405 1694 1569 1895 2044 2736 2925 1891 1562 1049 1069 359
0 0 0 0 0 1 71 58 465 323 232 226 166 110 77 76 252 290 326 443 433 445 661 641 540 510 600 556 783 553 496 523 757 1014 1215 1481 1540 1544 1880 1541 1725 2077 2427 2166 2019 1887 988 976 478
0 0 0 0 0 0 11 56 371 302 289 205 174 153 109 88 169 215 319 521 612 524 599 600 603 667 490 478 498 640 756 1000 1080 938 1200 1549 1635 1776 2163 1574 1817 1666 1961 2241 1707 1227 985 885 443
0 0 0 0 0 0 0 11 85 366 319 344 187 148 92 108 182 239 284 428 584 735 677 596 641 710 653 429 685 815 1049 1078 1231 1029 1395 1577 1702 2040 1987 1844 1867 1663 2351 1872 1917 1611 808 147 175
0 0 0 0 0 0 1 0 88 474 393 235 211 119 27 127 168 249 296 385 499 668 798 639 811 838 858 783 759 914 1014 993 1078 1050 1155 1601 1799 1899 2090 2176 1941 1900 2172 2570 2096 1722 1220 31 85
0 0 0 0 0 0 0 0 27 253 541 485 272 119 94 60 108 199 245 305 392 587 687 816 785 889 645 901 1005 1493 995 893 968 1220 1137 1533 1706 1643 1815 2043 2054 1909 1871 2358 2292 1731 1169 694 73
0 0 0 0 0 0 0 0 0 46 390 637 623 460 201 118 126 170 245 302 368 507 561 609 738 1077 1080 1057 1117 1018 1338 1063 1034 965 1353 1436 1661 1679 1587 1922 2065 2162 2044 2301 1992 1947 1878 1064 63
0 0 0 0 0 0 0 0 0 0 121 508 665 706 582 347 171 236 302 324 311 385 456 506 786 1076 1135 955 1005 1538 1673 1190 840 960 928 965 1154 1494 1767 1834 2173 2404 2241 2327 2073 2042 2119 1851 1261
0 0 0 0 0 0 0 0 0 0 11 95 436 721 739 646 482 307 355 407 420 455 494 621 1184 1115 1071 980 1110 1312 1647 1683 1317 1224 866 1114 745 1006 1557 2030 2174 2181 2516 2406 2223 2268 2248 2157 1565
0 0 0 0 0 0 0 0 0 0 0 6 145 408 699 768 737 628 533 640 678 759 830 800 1041 1184 1081 1026 1261 1445 1601 812 860 1318 800 662 487 591 1322 1785 1911 2218 2399 2393 2413 2133 2093 2263 2212
0 0 0 0 0 0 0 0 0 0 0 0 0 124 461 766 839 797 656 639 727 868 981 804 1038 1113 1075 970 1286 1387 1411 1351 1084 1537 1386 687 1100 457 896 1280 1579 1805 2199 2406 2429 2268 2359 2307 2439
0 0 0 0 0 0 0 0 0 0 0 0 0 0 75 415 627 852 890 884 865 721 946 952 1004 1126 1106 985 1055 952 1271 1324 1340 1290 1353 1342 1039 806 526 1148 1270 1520 1836 2192 2410 2053 2367 2501 2261
0 0 0 0 0 0 0 0 0 0 0 0 0 0 22 96 239 510 884 1151 935 712 842 915 911 1109 1103 992 996 1178 1211 1083 1083 910 1054 1317 1153 1092 1124 1250 1310 1398 1506 1745 2138 2162 2018 2577 2663
0 0 0 2 0 0 0 0 0 0 0 0 0 0 0 84 164 252 401 746 962 1205 952 867 800 805 973 1033 1137 1178 1359 1425 974 1091 944 1024 1288 1134 1177 1316 1455 1524 1526 1728 1984 1901 1628 2155 2531
CIN
-54 -25 -33 -23 0 0 0 -1 -14 -39 -53 -78 0 -59 -56 0 -67 -28 -73 -58 -15 0 0 0 0 0 0 0 0 0 0 0 0 0 0 0 0 0 0 0 0 0 0 0 -1 -2 0 0 0
-42 -51 -33 -1 0 -17 0 -9 -10 -38 -75 -107 -71 -41 -42 -64 0 0 -96 -15 -63 -9 0 0 -1 0 0 0 0 0 0 0 -1 0 0 0 0 0 0 0 0 0 0 0 0 0 0 0 0
-58 -8 0 -3 0 -14 -4 -10 -38 -55 -47 -52 -54 -126 -111 -157 0 -105 -119 -19 -23 -2 0 0 0 0 0 0 0 0 0 0 0 -1 0 0 0 0 0 0 0 0 0 0 0 0 0 0 -1
-20 -9 -36 0 -6 -17 -22 -30 -82 -71 -23 -28 -60 -119 0 -6 0 -194 -56 -7 -5 -3 0 0 0 0 0 0 0 0 0 0 0 0 0 0 -5 -1 0 0 0 0 0 0 0 0 0 -6 -7
-64 -13 -10 -11 -23 -35 -34 -44 -44 -41 -33 -55 -135 0 0 0 -64 -124 -20 -3 0 -10 0 0 0 0 0 0 0 0 0 0 0 0 0 0 0 0 0 0 0 0 0 0 0 0 -2 -3 -5
-12 -32 -47 -48 -61 -59 -44 -42 -41 -37 -65 -206 -95 0 0 0 -130 -45 -19 -2 0 -13 -9 0 0 0 0 0 0 0 0 0 0 0 0 0 0 -1 0 0 0 0 0 0 -1 -7 -12 -12 -10
-29 0 0 -84 -59 -80 -76 -28 -45 -44 -88 -114 0 0 0 -178 -113 -19 -4 0 0 -7 -9 0 0 0 0 0 0 0 0 0 0 0 0 0 -1 -2 -1 -1 -1 -1 0 0 -4 -13 -19 -16 -15
-8 -14 -45 -62 -54 -74 -66 -66 -56 -56 -130 -46 0 0 0 -9 -46 -2 0 0 0 -2 -4 -1 0 0 0 0 0 0 0 0 0 0 0 0 0 -1 -1 -4 -3 -3 -1 0 -4 -12 -20 -16 -13
-82 -26 -40 -25 -46 -55 -92 -82 -59 -186 -33 -54 0 0 0 -157 -37 -5 0 0 0 -1 -7 -13 0 0 0 0 0 0 0 0 0 0 0 -6 0 0 0 -6 -4 -5 -3 -4 -6 -14 -17 -14 -12
-13 -55 -52 -50 -57 -80 -101 -75 -85 -137 -187 -125 0 0 -149 -137 -64 -65 -28 -1 0 -6 -10 -17 -5 -2 0 0 0 0 0 0 0 0 -4 -9 -11 -12 -13 -5 -8 -5 -5 -7 -8 -12 -18 -18 0
-57 -87 -85 -62 -102 -79 -53 -66 -69 -82 -93 -157 -212 -225 -202 -123 -114 -141 -84 -34 -42 -75 -45 -27 -1 0 0 -3 0 0 0 0 0 -1 -36 -21 -19 -11 -13 -10 -6 -5 -12 -1 -2 -7 -10 -13 -9
-99 -107 -58 -56 -52 -83 -72 -43 -58 -67 -45 -107 -218 -277 -207 -153 -194 -196 -102 -41 -43 -105 -71 -24 0 0 0 0 -4 -3 0 -1 -2 -16 -72 -28 -17 -28 -24 -17 -17 -15 -8 -10 -7 -10 -17 -15 -16
-125 -134 -100 -84 -80 -97 -112 -45 -21 -58 -107 -183 -247 -256 -200 -205 -218 -221 -134 -73 -67 -110 -89 -25 -2 -1 0 0 -4 -12 -6 -10 -14 -28 -70 -80 -25 -31 -36 -30 -28 -35 -25 -11 -8 -11 -9 -12 -13
0 0 -81 0 0 0 0 -94 -41 -81 -182 -202 -256 -261 -178 -227 -220 -219 -176 -123 -91 -107 -115 -52 -16 -12 -9 0 -2 -25 -22 -19 -21 -23 -130 -66 -48 -40 -51 -58 -40 -26 -22 -14 -13 -12 -73 -25 -27
0 0 0 0 0 0 -72 -82 -74 -132 -178 -201 -243 -239 -154 -188 -241 -212 -169 -138 -119 -94 -86 -58 -32 -39 -42 -12 -22 -41 -47 -45 -28 -23 -55 -80 -47 -33 -47 -48 -20 -17 -24 -17 -17 -19 -80 -53 -25
0 0 0 0 0 0 -101 -37 -97 -177 -175 -203 -218 -232 -179 -166 -185 -144 -110 -105 -86 -78 -58 -52 -64 -85 -75 -71 -53 -66 -64 -54 -33 -22 -24 -50 -80 -35 -41 -31 -18 -27 -5 -16 -13 -12 -13 -11 -14
0 0 0 0 0 0 -101 -56 -118 -199 -154 -173 -201 -220 -228 -143 -115 -102 -85 -66 -66 -74 -58 -63 -70 -103 -96 -86 -75 -72 -79 -54 -34 -30 -25 -27 -36 -32 -23 -23 -27 -30 -9 -1 -9 -14 -16 -10 -36
0 0 0 0 0 -27 -91 -73 -145 -211 -189 -178 -196 -214 -232 -209 -135 -104 -76 -40 -36 -68 -68 -64 -81 -88 -86 -86 -62 -64 -65 -57 -45 -36 -32 -43 -28 -25 -17 -20 -31 -20 -7 -5 -6 -18 -57 -39 -20
0 0 0 0 0 0 -107 -68 -91 -182 -177 -197 -203 -221 -234 -225 -145 -107 -83 -36 -19 -42 -59 -71 -77 -85 -88 -87 -73 -50 -38 -38 -43 -57 -67 -60 -43 -26 -14 -12 -19 -26 -7 -5 -18 -22 -42 -12 -44
0 0 0 0 0 0 -14 -46 -87 -138 -189 -177 -234 -263 -271 -213 -159 -121 -99 -63 -34 -23 -48 -74 -83 -79 -92 -90 -63 -46 -39 -34 -29 -52 -58 -54 -41 -28 -19 -20 -14 -26 -13 -23 -14 -14 -11 -33 -57
0 0 0 0 0 0 -23 0 -80 -113 -146 -190 -202 -221 -336 -236 -199 -163 -135 -108 -64 -38 -42 -67 -68 -71 -69 -71 -50 -58 -52 -52 -33 -41 -40 -39 -41 -31 -25 -16 -15 -19 -26 -7 -5 -9 -9 -12 -69
0 0 0 0 0 0 -10 0 -54 -77 -142 -166 -196 -230 -252 -270 -223 -172 -146 -134 -129 -89 -69 -59 -67 -57 -79 -62 -34 -18 -24 -28 -21 -23 -22 -25 -44 -38 -32 -21 -19 -20 -9 -13 -15 -12 -15 -24 -40
0 0 0 0 0 0 0 0 0 -82 -83 -118 -152 -192 -209 -226 -229 -212 -209 -175 -141 -77 -80 -75 -77 -45 -39 -47 -40 -31 -14 -25 -31 -35 -25 -29 -43 -48 -39 -30 -19 -13 -9 -13 -20 -22 -17 -20 -63
0 0 0 0 0 0 0 0 0 0 -94 -101 -135 -167 -190 -204 -231 -215 -188 -147 -136 -95 -86 -72 -67 -51 -45 -55 -55 -28 -11 -34 -48 -40 -36 -22 -17 -23 -38 -31 -22 -10 -10 -14 -16 -20 -18 -15 -22
0 0 0 0 0 0 0 0 0 0 -60 -76 -91 -160 -203 -210 -209 -224 -191 -184 -166 -126 -110 -73 -31 -55 -58 -55 -46 -49 -26 -25 -47 -46 -44 -27 -32 -25 -27 -35 -29 -15 -15 -13 -15 -15 -15 -15 -19
0 0 0 0 0 0 0 0 0 0 0 -12 -84 -94 -139 -181 -192 -227 -224 -187 -187 -158 -125 -98 -58 -48 -64 -59 -51 -47 -46 -57 -59 -46 -58 -61 -61 -57 -33 -32 -26 -20 -18 -14 -13 -10 -6 -10 -10
0 0 0 0 0 0 0 0 0 0 0 0 0 -130 -141 -181 -200 -223 -257 -218 -193 -172 -141 -159 -99 -78 -66 -72 -54 -55 -61 -65 -67 -57 -77 -86 -55 -78 -70 -44 -34 -28 -20 -16 -12 -6 -13 -12 -11
0 0 0 0 0 0 0 0 0 0 0 0 0 0 -141 -173 -192 -179 -220 -250 -213 -213 -186 -175 -145 -123 -118 -91 -74 -77 -88 -104 -97 -93 -96 -72 -78 -89 -87 -59 -49 -35 -30 -22 -18 -10 -10 -9 -8
0 0 0 0 0 0 0 0 0 0 0 0 0 0 -156 -158 -215 -209 -239 -250 -290 -255 -201 -186 -183 -145 -114 -128 -123 -95 -89 -128 -137 -144 -141 -103 -99 -91 -74 -63 -53 -46 -39 -35 -28 -26 -19 -4 -6
0 0 0 0 0 0 0 0 0 0 0 0 0 0 0 -182 -186 -242 -270 -303 -287 -259 -235 -229 -219 -174 -149 -138 -133 -134 -107 -100 -146 -157 -166 -158 -112 -121 -97 -69 -51 -44 -44 -38 -34 -30 -26 -25 -15
Wind_Speed
11 9 4 3 4 2 3 3 1 11 8 4 15 6 9 4 1 4 13 11 18 15 14 15 13 14 15 13 12 12 13 13 12 12 11 12 11 12 11 12 11 10 10 9 10 8 9 9 9
8 8 2 2 2 2 3 3 8 5 11 17 9 14 5 4 4 11 12 17 20 16 14 14 12 14 14 13 13 13 12 11 12 12 12 11 11 11 11 13 10 11 10 11 9 9 8 9 11
10 2 2 1 1 2 2 4 8 14 17 11 6 6 3 5 6 18 13 21 20 15 13 14 13 14 14 13 13 13 13 12 12 11 12 10 10 12 12 12 10 9 10 9 9 9 9 9 9
6 2 2 2 3 1 2 2 17 18 11 5 11 8 5 1 14 9 21 20 19 16 14 15 14 14 14 12 13 13 13 11 10 10 11 11 9 13 11 11 10 8 7 9 9 9 9 8 8
3 1 2 3 2 1 3 11 13 16 10 7 2 5 5 11 7 20 20 19 19 17 14 14 13 13 13 12 13 12 12 10 11 11 11 10 10 10 11 11 9 9 8 8 8 9 10 9 9
3 2 3 2 1 2 3 4 16 11 8 8 7 9 4 11 17 21 20 19 17 17 14 13 13 12 13 13 12 12 11 11 10 10 11 10 10 9 10 9 8 7 8 7 6 8 8 7 7
2 3 2 3 2 3 4 3 13 10 10 7 13 7 7 13 20 19 19 18 17 16 14 12 12 12 12 11 13 12 11 10 12 11 10 10 10 9 7 7 7 7 6 7 8 7 7 6 6
2 2 3 3 1 1 5 4 7 6 5 13 9 7 9 15 21 19 18 18 16 15 13 12 10 10 9 10 12 10 10 10 10 10 10 9 9 7 8 5 7 7 8 8 8 7 6 7 8
4 3 3 2 1 5 7 5 4 6 14 5 9 7 18 24 21 19 18 16 15 13 13 12 11 10 8 9 10 10 10 9 9 9 8 6 5 6 5 5 5 7 8 9 8 7 7 7 8
6 3 3 1 1 2 9 8 10 8 12 7 7 14 23 25 22 22 20 18 18 17 15 12 11 11 9 7 8 7 7 6 5 5 5 4 4 4 3 3 3 7 7 8 8 7 6 3 4
6 5 5 3 4 2 7 8 7 12 11 11 20 23 26 25 22 22 20 20 19 17 13 13 11 11 10 8 6 4 4 5 4 5 3 4 3 3 2 2 2 2 5 4 5 5 3 4 3
5 9 6 2 2 2 3 7 7 13 1 13 20 28 28 26 24 23 21 20 18 17 16 14 13 11 10 7 6 6 5 5 4 4 4 3 2 3 3 2 2 2 2 2 2 2 3 3 4
15 6 6 11 10 6 3 9 5 13 4 16 21 27 28 24 23 21 20 19 17 17 17 16 14 11 10 8 6 5 5 5 4 4 3 2 2 2 2 3 2 1 1 2 2 3 2 3 4
7 17 8 6 7 7 7 5 7 4 14 19 24 27 26 25 25 22 22 21 19 17 17 16 15 12 11 8 8 6 5 5 4 3 3 4 2 1 2 2 2 2 1 1 2 3 3 2 2
12 3 6 10 11 6 4 7 11 13 17 22 23 23 24 24 24 23 21 20 19 16 16 17 15 14 12 10 8 6 5 5 4 4 5 4 2 2 2 2 3 2 2 3 3 4 3 4 3
7 6 9 3 14 6 8 5 6 17 20 21 22 22 23 25 25 21 19 19 18 16 17 16 13 14 13 10 7 6 6 5 4 4 4 5 4 3 2 2 2 3 3 3 2 2 2 3 3
5 8 17 7 12 6 13 4 9 15 17 19 20 22 22 23 23 21 20 18 18 17 16 16 15 14 14 10 8 7 6 5 4 4 4 5 5 4 2 2 1 3 2 4 3 2 1 3 4
10 13 7 16 10 14 13 11 10 14 15 19 20 20 22 23 25 22 21 19 17 17 16 15 13 13 12 8 7 6 5 5 4 5 5 5 4 5 4 2 2 3 1 3 3 3 4 1 3
6 8 11 6 9 14 17 16 12 15 14 17 19 20 22 23 21 21 20 19 18 17 17 16 15 13 10 9 9 8 7 5 5 6 8 6 6 6 5 4 4 3 3 5 6 5 1 4 3
15 8 11 9 7 8 14 20 11 17 19 20 22 22 22 22 22 22 22 21 21 19 18 17 17 14 12 9 8 5 7 5 3 4 5 6 7 6 5 5 4 4 3 5 5 4 3 2 3
19 21 12 7 3 11 9 16 13 15 14 16 17 18 17 23 25 24 24 24 21 22 21 18 16 15 14 12 8 5 5 3 4 4 5 6 8 7 7 6 3 4 2 3 4 4 4 3 3
20 17 16 15 8 11 16 13 15 14 19 20 20 21 22 24 23 23 24 24 24 22 20 18 17 16 15 14 11 12 9 8 7 5 4 5 8 8 8 6 5 5 4 3 3 4 3 3 3
16 9 18 18 14 11 12 12 15 12 17 21 22 24 24 24 25 25 27 26 24 21 20 18 17 16 15 15 13 11 10 8 7 6 7 6 6 8 8 7 7 6 5 3 4 6 5 3 2
9 5 11 12 14 19 21 14 16 14 18 18 21 22 24 25 26 25 24 23 22 21 20 19 18 17 16 16 16 14 13 11 9 9 9 8 7 6 8 9 8 7 5 4 4 4 5 4 3
17 14 7 7 10 17 18 19 15 9 14 18 21 24 25 24 24 24 25 24 23 23 23 19 19 18 18 17 17 16 15 14 14 12 10 10 8 7 8 9 8 7 7 5 4 6 5 6 5
22 20 9 13 9 12 17 15 16 23 20 10 14 16 20 23 23 26 26 24 24 24 23 22 21 19 19 19 18 15 16 12 12 13 11 10 9 9 9 10 9 9 8 7 6 5 5 5 5
14 24 22 11 2 10 13 17 15 13 16 22 16 14 19 24 25 27 28 27 25 23 24 23 21 20 19 19 16 16 15 15 13 14 12 10 9 8 10 10 10 10 10 9 8 7 7 6 6
11 11 19 13 17 14 7 19 14 23 19 15 21 20 19 21 24 24 25 26 23 25 23 23 22 21 21 20 17 15 17 16 15 13 13 12 10 10 10 11 10 10 10 10 9 8 8 8 7
8 11 10 14 17 11 14 10 10 17 20 21 17 19 21 22 24 25 24 24 25 23 23 23 22 22 20 20 19 18 16 17 15 14 14 13 12 11 12 11 11 11 11 10 10 10 10 10 10
9 7 13 14 19 18 16 8 3 11 19 21 21 18 21 22 23 23 23 23 24 24 23 24 23 22 21 20 18 18 17 16 17 16 16 15 14 13 13 12 12 11 11 10 11 11 11 12 12
Wind_Direction
157 161 153 187 217 209 267 89 78 117 137 143 139 154 147 39 68 81 139 148 142 144 146 139 134 129 124 127 123 119 118 118 124 121 119 119 120 120 122 115 117 116 108 104 105 107 102 101 106
139 138 197 269 252 244 61 72 123 124 130 127 99 119 94 91 79 124 137 150 146 143 147 142 136 131 131 128 122 121 120 120 119 121 121 121 123 122 123 114 122 107 113 104 105 111 106 112 107
153 136 276 263 272 276 90 76 105 120 136 139 108 53 77 104 121 142 138 149 147 146 144 142 137 132 134 135 127 128 120 116 118 123 117 116 123 115 121 119 116 110 104 109 106 101 103 107 117
156 185 242 272 223 157 32 71 127 138 117 69 123 78 94 31 145 148 149 149 148 147 147 141 142 138 137 136 123 117 119 117 115 108 110 113 112 117 113 111 108 102 105 113 112 116 114 110 112
151 214 222 246 238 156 110 131 147 146 124 122 119 109 75 123 125 143 151 153 150 148 149 147 147 142 137 125 122 122 120 108 115 112 111 108 102 105 111 107 107 110 118 123 128 123 114 109 98
152 265 228 226 194 140 103 140 152 135 131 136 107 119 114 138 142 150 153 154 153 151 151 148 146 148 138 137 127 127 120 109 110 116 113 108 101 99 102 110 115 115 114 113 115 111 110 105 105
198 202 254 283 263 177 170 160 165 140 141 158 136 119 123 149 151 152 154 152 158 154 151 151 154 156 155 142 132 131 127 117 107 110 108 108 108 103 106 105 106 99 102 106 110 113 118 113 87
227 245 246 237 65 127 152 127 136 147 135 129 159 158 166 161 155 152 153 154 159 158 156 157 160 158 150 148 137 131 128 120 115 111 110 104 103 99 91 104 106 109 100 98 108 127 129 101 79
141 245 251 210 168 135 164 151 98 115 140 159 173 152 140 155 154 153 153 156 159 164 165 167 162 161 156 147 138 141 138 131 127 124 103 115 98 104 118 75 118 118 108 109 111 133 130 108 95
213 237 226 304 303 131 180 188 137 145 150 128 127 122 142 156 161 160 162 162 168 167 173 174 170 163 162 153 146 148 146 136 128 113 105 114 107 116 110 86 96 111 103 115 118 124 121 166 111
194 232 237 32 81 104 144 181 161 153 188 183 161 152 157 161 165 169 168 169 172 171 174 179 173 168 171 154 157 158 154 148 139 125 120 114 121 116 118 111 81 64 100 127 127 136 138 123 111
234 244 247 295 131 41 187 160 184 188 283 174 166 162 159 169 170 172 174 172 170 173 180 179 177 173 177 165 168 164 165 163 160 140 142 150 152 130 121 110 87 94 68 84 116 136 141 158 139
224 248 268 251 284 297 206 195 196 202 99 146 155 162 166 169 174 176 176 173 176 179 181 183 181 177 179 176 168 173 177 176 159 167 167 169 154 121 124 115 74 36 85 142 127 127 152 178 171
223 227 247 293 278 270 269 253 199 134 135 146 160 168 171 174 178 177 180 179 182 184 185 182 188 180 184 183 178 174 180 171 185 173 156 166 155 162 142 161 158 163 167 140 118 99 59 68 153
228 286 233 246 252 232 207 217 221 148 151 156 167 173 176 178 183 188 184 183 182 188 184 187 188 184 189 190 185 182 184 186 192 182 172 175 187 188 185 156 146 155 143 141 123 119 108 149 101
209 222 247 183 211 210 193 254 170 158 161 165 169 177 181 185 190 189 189 188 186 188 189 189 190 189 190 192 190 189 188 197 200 199 191 195 203 200 207 178 167 186 152 139 141 111 124 93 97
179 208 218 244 200 187 194 249 163 172 175 169 176 180 186 188 193 194 193 193 190 192 190 191 194 193 193 192 194 195 190 205 209 218 222 211 206 202 238 256 215 208 141 135 167 110 51 97 81
194 216 210 217 191 215 207 229 158 176 181 179 179 184 191 194 194 192 194 194 193 195 194 196 197 198 193 188 189 192 198 205 219 231 233 223 222 203 200 215 205 221 165 139 141 131 101 142 92
259 236 242 217 216 202 231 224 199 180 191 186 187 189 195 198 193 193 196 194 194 197 196 197 197 200 190 189 187 191 200 203 221 229 234 212 214 208 198 198 196 230 228 156 128 114 107 131 136
231 247 233 249 234 220 218 243 208 190 200 194 192 192 197 196 194 196 196 197 198 198 199 198 201 198 196 195 194 194 185 198 212 202 209 201 197 196 199 209 193 221 200 161 141 150 149 119 150
224 234 229 248 335 226 247 240 213 206 212 204 204 203 196 198 198 197 197 199 198 199 200 199 198 199 201 199 192 169 152 142 182 181 196 197 196 194 201 200 220 231 252 158 145 140 169 147 153
229 226 244 252 275 226 213 240 211 191 204 206 201 199 199 201 204 200 200 202 202 201 200 196 197 197 201 192 197 199 200 196 201 195 193 193 200 204 207 201 201 220 239 197 159 153 162 180 180
233 222 225 237 249 272 242 239 233 194 205 208 208 205 203 200 201 204 203 204 203 198 201 198 195 195 197 196 201 200 207 203 192 197 196 206 199 213 209 202 200 214 224 184 190 176 180 175 203
210 162 214 233 239 245 232 233 226 201 213 208 212 211 207 202 201 206 205 203 204 201 198 199 193 195 195 196 196 199 203 196 196 200 205 206 205 196 206 206 210 220 215 213 216 218 179 198 204
205 209 206 209 209 239 221 237 234 223 220 216 206 210 207 206 202 202 202 201 200 200 199 195 193 195 194 197 199 198 203 200 199 195 209 206 208 204 199 203 206 214 217 212 214 213 203 197 213
207 209 206 211 218 232 216 234 221 227 239 239 236 216 205 205 206 204 202 199 199 197 191 193 192 196 194 197 199 201 201 208 214 211 218 223 224 219 203 203 211 214 221 213 211 231 234 215 219
200 214 218 262 236 255 214 234 264 228 236 228 222 214 202 205 205 206 203 199 196 195 196 191 191 194 195 199 201 201 202 208 213 215 211 217 219 219 216 210 212 217 221 221 218 232 239 231 226
243 208 207 222 241 234 206 226 233 207 223 222 224 214 210 208 210 208 203 202 198 196 194 189 193 192 191 198 200 203 202 204 207 208 211 209 209 210 207 212 214 219 220 222 222 227 230 232 232
191 218 218 234 233 237 239 227 237 229 212 217 217 218 218 212 210 208 203 200 198 193 191 193 193 192 193 195 198 202 208 206 205 209 212 209 200 200 205 211 213 220 223 220 221 233 240 231 239
302 288 269 227 223 231 260 246 197 229 220 216 224 217 217 217 213 209 203 198 198 196 192 193 193 194 193 195 197 199 203 204 204 208 209 208 202 200 205 211 213 217 224 222 222 230 236 233 239